N17CX EGKK-EGPH

Flight info

Callsign N17CX
Flight time 1h 17m
Altitude 24000
Route LAM L10 BPK UN601 RIBEL DCT INPIP
Aircraft SF50/L-BDGRSWY/LB2U2

Departure

Time 2026-04-15 13:02
Airport London Gatwick Airport (EGKK)

Arrival

Time 2026-04-15 14:19
Airport Edinburgh Airport (EGPH)
Time Latitude Longitude Altitude Speed Heading
2026-04-15 12:27 51.15436 -0.19263 193 ft 0 kts 318°
2026-04-15 12:48 51.15437 -0.19264 193 ft 1 kts 354°
2026-04-15 12:49 51.15410 -0.19248 194 ft 8 kts 170°
2026-04-15 12:49 51.15368 -0.19281 196 ft 8 kts 257°
2026-04-15 12:49 51.15356 -0.19357 199 ft 7 kts 256°
2026-04-15 12:49 51.15315 -0.19372 200 ft 7 kts 167°
2026-04-15 12:50 51.15266 -0.19355 194 ft 6 kts 168°
2026-04-15 12:50 51.15230 -0.19343 194 ft 3 kts 172°
2026-04-15 12:50 51.15217 -0.19339 194 ft 5 kts 165°
2026-04-15 12:50 51.15148 -0.19315 194 ft 14 kts 168°
2026-04-15 12:51 51.15070 -0.19275 200 ft 9 kts 126°
2026-04-15 12:51 51.15065 -0.19196 194 ft 6 kts 78°
2026-04-15 12:51 51.15073 -0.19136 200 ft 5 kts 78°
2026-04-15 12:51 51.15082 -0.19078 194 ft 6 kts 78°
2026-04-15 12:52 51.15093 -0.18996 194 ft 10 kts 78°
2026-04-15 12:52 51.15115 -0.18837 194 ft 19 kts 77°
2026-04-15 12:52 51.15141 -0.18647 194 ft 15 kts 78°
2026-04-15 12:52 51.15162 -0.18502 201 ft 11 kts 76°
2026-04-15 12:53 51.15175 -0.18402 200 ft 7 kts 81°
2026-04-15 12:53 51.15183 -0.18345 195 ft 4 kts 78°
2026-04-15 12:53 51.15186 -0.18294 195 ft 5 kts 89°
2026-04-15 12:53 51.15193 -0.18220 195 ft 8 kts 77°
2026-04-15 12:54 51.15208 -0.18116 196 ft 11 kts 73°
2026-04-15 12:54 51.15224 -0.17998 194 ft 10 kts 78°
2026-04-15 12:54 51.15238 -0.17898 194 ft 9 kts 78°
2026-04-15 12:54 51.15252 -0.17797 197 ft 10 kts 77°
2026-04-15 12:55 51.15270 -0.17666 194 ft 14 kts 78°
2026-04-15 12:55 51.15292 -0.17506 198 ft 15 kts 78°
2026-04-15 12:55 51.15299 -0.17362 194 ft 11 kts 128°
2026-04-15 12:55 51.15246 -0.17311 195 ft 8 kts 120°
2026-04-15 12:56 51.15247 -0.17227 199 ft 7 kts 78°
2026-04-15 12:56 51.15258 -0.17141 195 ft 9 kts 78°
2026-04-15 12:56 51.15273 -0.17035 195 ft 11 kts 77°
2026-04-15 12:56 51.15289 -0.16912 200 ft 11 kts 77°
2026-04-15 12:57 51.15276 -0.16827 198 ft 4 kts 151°
2026-04-15 12:57 51.15271 -0.16823 195 ft 0 kts 165°
2026-04-15 13:00 51.15263 -0.16820 195 ft 5 kts 167°
2026-04-15 13:00 51.15201 -0.16799 195 ft 9 kts 167°
2026-04-15 13:01 51.15145 -0.16798 194 ft 7 kts 202°
2026-04-15 13:01 51.15112 -0.16864 194 ft 6 kts 258°
2026-04-15 13:01 51.15112 -0.16870 194 ft 0 kts 258°
2026-04-15 13:01 51.15088 -0.17041 195 ft 48 kts 258°
2026-04-15 13:02 51.14973 -0.17896 283 ft 99 kts 255°
2026-04-15 13:02 51.14849 -0.19022 760 ft 107 kts 252°
2026-04-15 13:02 51.14670 -0.20269 1327 ft 124 kts 248°
2026-04-15 13:02 51.14463 -0.21665 2092 ft 133 kts 250°
2026-04-15 13:03 51.14271 -0.23075 2930 ft 131 kts 251°
2026-04-15 13:03 51.14078 -0.24502 3697 ft 130 kts 251°
2026-04-15 13:03 51.13882 -0.26001 4065 ft 157 kts 251°
2026-04-15 13:03 51.13702 -0.27920 4015 ft 194 kts 265°
2026-04-15 13:04 51.14181 -0.30058 4016 ft 221 kts 293°
2026-04-15 13:04 51.15054 -0.32125 4015 ft 226 kts 296°
2026-04-15 13:04 51.15986 -0.34154 4009 ft 231 kts 304°
2026-04-15 13:04 51.17400 -0.35511 3995 ft 249 kts 336°
2026-04-15 13:05 51.19159 -0.35560 3994 ft 260 kts
2026-04-15 13:05 51.20753 -0.34200 3991 ft 263 kts 42°
2026-04-15 13:05 51.21734 -0.31786 3997 ft 259 kts 75°
2026-04-15 13:05 51.21860 -0.29011 4001 ft 247 kts 104°
2026-04-15 13:06 51.21391 -0.26428 3993 ft 238 kts 123°
2026-04-15 13:06 51.20720 -0.24008 4000 ft 242 kts 116°
2026-04-15 13:06 51.20361 -0.21355 3998 ft 247 kts 103°
2026-04-15 13:06 51.20430 -0.18522 3999 ft 268 kts 85°
2026-04-15 13:07 51.20883 -0.15548 4007 ft 283 kts 79°
2026-04-15 13:07 51.21393 -0.12525 4012 ft 287 kts 80°
2026-04-15 13:07 51.21805 -0.09404 4013 ft 288 kts 84°
2026-04-15 13:07 51.22174 -0.06268 4015 ft 287 kts 83°
2026-04-15 13:08 51.22569 -0.03254 3996 ft 256 kts 82°
2026-04-15 13:08 51.22921 -0.00732 4141 ft 214 kts 84°
2026-04-15 13:08 51.23203 0.01494 4375 ft 199 kts 85°
2026-04-15 13:08 51.23473 0.03643 4628 ft 197 kts 85°
2026-04-15 13:09 51.23747 0.05793 4877 ft 199 kts 85°
2026-04-15 13:09 51.24041 0.08109 5009 ft 229 kts 84°
2026-04-15 13:09 51.24377 0.10739 5011 ft 261 kts 84°
2026-04-15 13:09 51.24762 0.13697 5002 ft 280 kts 83°
2026-04-15 13:10 51.25169 0.16797 5010 ft 289 kts 83°
2026-04-15 13:10 51.25574 0.19953 5015 ft 290 kts 83°
2026-04-15 13:10 51.25956 0.23112 5011 ft 289 kts 84°
2026-04-15 13:10 51.26313 0.26261 4691 ft 289 kts 85°
2026-04-15 13:11 51.26683 0.29424 4669 ft 290 kts 84°
2026-04-15 13:11 51.27064 0.32591 4659 ft 291 kts 83°
2026-04-15 13:11 51.27853 0.35593 4638 ft 298 kts 58°
2026-04-15 13:11 51.29362 0.37793 4653 ft 300 kts 30°
2026-04-15 13:12 51.31332 0.38775 4675 ft 296 kts
2026-04-15 13:12 51.33320 0.38326 4703 ft 284 kts 334°
2026-04-15 13:12 51.34940 0.36657 4737 ft 273 kts 311°
2026-04-15 13:12 51.36402 0.34701 4759 ft 277 kts 317°
2026-04-15 13:13 51.38108 0.33169 4994 ft 283 kts 327°
2026-04-15 13:13 51.39908 0.31844 4994 ft 286 kts 331°
2026-04-15 13:13 51.41758 0.30661 4997 ft 286 kts 333°
2026-04-15 13:13 51.43551 0.29487 5703 ft 267 kts 331°
2026-04-15 13:14 51.45275 0.28304 5995 ft 276 kts 330°
2026-04-15 13:14 51.47053 0.27080 5997 ft 285 kts 331°
2026-04-15 13:14 51.48895 0.25843 6001 ft 288 kts 332°
2026-04-15 13:14 51.50752 0.24597 6008 ft 289 kts 332°
2026-04-15 13:15 51.52607 0.23337 6013 ft 289 kts 331°
2026-04-15 13:15 51.54463 0.22072 6013 ft 290 kts 332°
2026-04-15 13:15 51.56326 0.20808 6010 ft 290 kts 332°
2026-04-15 13:15 51.58183 0.19549 6015 ft 291 kts 332°
2026-04-15 13:16 51.60046 0.18283 6006 ft 291 kts 331°
2026-04-15 13:16 51.61908 0.17008 6005 ft 290 kts 332°
2026-04-15 13:16 51.63691 0.15538 5996 ft 284 kts 320°
2026-04-15 13:16 51.65146 0.13474 6240 ft 270 kts 305°
2026-04-15 13:17 51.66186 0.11223 7175 ft 238 kts 295°
2026-04-15 13:17 51.67041 0.09116 7700 ft 208 kts 295°
2026-04-15 13:17 51.67796 0.07288 8181 ft 187 kts 292°
2026-04-15 13:17 51.68484 0.05542 8676 ft 183 kts 292°
2026-04-15 13:18 51.69169 0.03821 9242 ft 184 kts 292°
2026-04-15 13:18 51.69873 0.02061 9648 ft 188 kts 292°
2026-04-15 13:18 51.70586 0.00290 10145 ft 189 kts 293°
2026-04-15 13:18 51.71303 -0.01494 10588 ft 191 kts 292°
2026-04-15 13:19 51.72023 -0.03300 11039 ft 193 kts 292°
2026-04-15 13:19 51.72756 -0.05124 11491 ft 194 kts 292°
2026-04-15 13:19 51.73482 -0.06941 11948 ft 196 kts 291°
2026-04-15 13:19 51.74226 -0.08804 12403 ft 198 kts 291°
2026-04-15 13:20 51.75099 -0.10587 12852 ft 211 kts 306°
2026-04-15 13:20 51.76332 -0.11979 13321 ft 221 kts 321°
2026-04-15 13:20 51.77673 -0.13219 13794 ft 223 kts 320°
2026-04-15 13:20 51.79013 -0.14500 14256 ft 225 kts 320°
2026-04-15 13:21 51.80364 -0.15791 14703 ft 227 kts 320°
2026-04-15 13:21 51.81732 -0.17094 15182 ft 229 kts 320°
2026-04-15 13:21 51.83110 -0.18407 15706 ft 231 kts 320°
2026-04-15 13:21 51.84485 -0.19717 16156 ft 233 kts 320°
2026-04-15 13:22 51.85885 -0.21057 16593 ft 235 kts 320°
2026-04-15 13:22 51.87303 -0.22407 17029 ft 237 kts 320°
2026-04-15 13:22 51.88730 -0.23773 17456 ft 239 kts 320°
2026-04-15 13:22 51.90170 -0.25148 17878 ft 241 kts 320°
2026-04-15 13:23 51.91625 -0.26546 18302 ft 243 kts 320°
2026-04-15 13:23 51.93092 -0.27947 18685 ft 245 kts 320°
2026-04-15 13:23 51.94565 -0.29361 19061 ft 247 kts 320°
2026-04-15 13:23 51.96051 -0.30784 19444 ft 249 kts 320°
2026-04-15 13:24 51.97551 -0.32223 19823 ft 251 kts 319°
2026-04-15 13:24 51.99063 -0.33673 20211 ft 253 kts 319°
2026-04-15 13:24 52.00587 -0.35135 20615 ft 255 kts 319°
2026-04-15 13:24 52.02102 -0.36594 21022 ft 257 kts 319°
2026-04-15 13:25 52.03646 -0.38077 21449 ft 257 kts 319°
2026-04-15 13:25 52.05190 -0.39563 21889 ft 258 kts 319°
2026-04-15 13:25 52.06734 -0.41052 22327 ft 258 kts 318°
2026-04-15 13:25 52.08281 -0.42545 22767 ft 259 kts 318°
2026-04-15 13:26 52.09831 -0.44039 23191 ft 259 kts 318°
2026-04-15 13:26 52.11381 -0.45538 23604 ft 259 kts 317°
2026-04-15 13:26 52.12935 -0.47040 23938 ft 261 kts 317°
2026-04-15 13:26 52.14535 -0.48611 23970 ft 277 kts 318°
2026-04-15 13:27 52.16234 -0.50266 23977 ft 292 kts 319°
2026-04-15 13:27 52.17995 -0.51963 23976 ft 304 kts 319°
2026-04-15 13:27 52.19844 -0.53749 23976 ft 313 kts 320°
2026-04-15 13:27 52.21736 -0.55591 23974 ft 321 kts 320°
2026-04-15 13:28 52.23674 -0.57478 23974 ft 327 kts 320°
2026-04-15 13:28 52.25642 -0.59391 23976 ft 332 kts 320°
2026-04-15 13:28 52.26969 -0.60681 23974 ft 335 kts 320°
2026-04-15 13:28 52.28981 -0.62647 23970 ft 339 kts 320°
2026-04-15 13:29 52.31014 -0.64632 23968 ft 343 kts 320°
2026-04-15 13:29 52.33073 -0.66646 23964 ft 346 kts 320°
2026-04-15 13:29 52.35148 -0.68677 23968 ft 349 kts 321°
2026-04-15 13:29 52.37242 -0.70728 23958 ft 352 kts 320°
2026-04-15 13:30 52.39353 -0.72798 23957 ft 354 kts 321°
2026-04-15 13:30 52.41471 -0.74873 23956 ft 354 kts 321°
2026-04-15 13:30 52.43587 -0.76953 23956 ft 355 kts 321°
2026-04-15 13:30 52.45705 -0.79038 23956 ft 355 kts 321°
2026-04-15 13:31 52.47824 -0.81128 23958 ft 355 kts 321°
2026-04-15 13:31 52.49948 -0.83221 23958 ft 355 kts 321°
2026-04-15 13:31 52.52065 -0.85310 23959 ft 355 kts 320°
2026-04-15 13:31 52.54186 -0.87408 23958 ft 355 kts 320°
2026-04-15 13:32 52.56306 -0.89508 23961 ft 355 kts 320°
2026-04-15 13:32 52.58396 -0.91579 23958 ft 356 kts 320°
2026-04-15 13:32 52.59500 -0.92670 23960 ft 356 kts 320°
2026-04-15 13:33 52.59507 -0.92678 23961 ft 356 kts 320°
2026-04-15 13:33 52.61632 -0.94790 23940 ft 356 kts 320°
2026-04-15 13:33 52.63752 -0.96900 23934 ft 356 kts 320°
2026-04-15 13:34 52.65873 -0.99009 23931 ft 356 kts 320°
2026-04-15 13:34 52.67990 -1.01119 23928 ft 356 kts 320°
2026-04-15 13:34 52.70112 -1.03233 23941 ft 356 kts 320°
2026-04-15 13:34 52.72234 -1.05353 23943 ft 356 kts 320°
2026-04-15 13:35 52.74353 -1.07473 23935 ft 356 kts 320°
2026-04-15 13:35 52.76474 -1.09597 23932 ft 356 kts 320°
2026-04-15 13:35 52.78565 -1.11682 23923 ft 347 kts 320°
2026-04-15 13:35 52.80630 -1.13758 23919 ft 349 kts 320°
2026-04-15 13:36 52.82688 -1.15837 23923 ft 352 kts 320°
2026-04-15 13:36 52.84784 -1.17942 23922 ft 354 kts 320°
2026-04-15 13:36 52.86899 -1.20066 23923 ft 356 kts 320°
2026-04-15 13:36 52.89016 -1.22201 23920 ft 357 kts 320°
2026-04-15 13:37 52.91136 -1.24341 23923 ft 357 kts 320°
2026-04-15 13:37 52.93261 -1.26484 23921 ft 357 kts 320°
2026-04-15 13:37 52.95385 -1.28633 23921 ft 358 kts 320°
2026-04-15 13:37 52.97516 -1.30789 23923 ft 358 kts 320°
2026-04-15 13:38 52.99641 -1.32939 23926 ft 358 kts 321°
2026-04-15 13:38 53.01767 -1.35095 23925 ft 358 kts 321°
2026-04-15 13:38 53.03893 -1.37261 23927 ft 358 kts 320°
2026-04-15 13:38 53.06020 -1.39424 23927 ft 358 kts 321°
2026-04-15 13:39 53.08148 -1.41587 23927 ft 359 kts 321°
2026-04-15 13:39 53.10247 -1.43727 23926 ft 359 kts 321°
2026-04-15 13:39 53.12378 -1.45903 23926 ft 359 kts 321°
2026-04-15 13:39 53.14510 -1.48079 23925 ft 359 kts 321°
2026-04-15 13:40 53.16642 -1.50262 23919 ft 359 kts 321°
2026-04-15 13:40 53.18771 -1.52441 23923 ft 359 kts 321°
2026-04-15 13:40 53.20900 -1.54623 23920 ft 360 kts 321°
2026-04-15 13:40 53.23031 -1.56815 23919 ft 360 kts 321°
2026-04-15 13:41 53.25168 -1.59012 23915 ft 360 kts 321°
2026-04-15 13:41 53.27303 -1.61207 23911 ft 360 kts 321°
2026-04-15 13:41 53.29441 -1.63408 23906 ft 360 kts 321°
2026-04-15 13:41 53.31577 -1.65617 23909 ft 361 kts 321°
2026-04-15 13:42 53.33711 -1.67825 23903 ft 361 kts 321°
2026-04-15 13:42 53.35852 -1.70034 23904 ft 361 kts 321°
2026-04-15 13:42 53.37960 -1.72215 23903 ft 361 kts 320°
2026-04-15 13:42 53.40097 -1.74429 23900 ft 359 kts 321°
2026-04-15 13:43 53.42225 -1.76641 23900 ft 360 kts 320°
2026-04-15 13:43 53.44354 -1.78856 23896 ft 360 kts 320°
2026-04-15 13:43 53.46486 -1.81077 23896 ft 361 kts 320°
2026-04-15 13:43 53.48627 -1.83299 23892 ft 362 kts 320°
2026-04-15 13:44 53.50765 -1.85527 23890 ft 362 kts 320°
2026-04-15 13:44 53.52905 -1.87758 23893 ft 362 kts 320°
2026-04-15 13:44 53.55044 -1.89989 23893 ft 362 kts 320°
2026-04-15 13:44 53.57185 -1.92227 23886 ft 363 kts 321°
2026-04-15 13:45 53.59327 -1.94470 23887 ft 362 kts 320°
2026-04-15 13:45 53.61469 -1.96714 23891 ft 362 kts 320°
2026-04-15 13:45 53.63605 -1.98961 23885 ft 362 kts 320°
2026-04-15 13:47 53.79034 -2.13460 23873 ft 369 kts 332°
2026-04-15 13:47 53.81405 -2.15108 23872 ft 368 kts 332°
2026-04-15 13:47 53.83783 -2.16748 23876 ft 369 kts 333°
2026-04-15 13:48 53.86163 -2.18362 23874 ft 369 kts 333°
2026-04-15 13:48 53.88551 -2.19988 23873 ft 369 kts 333°
2026-04-15 13:48 53.90896 -2.21602 23868 ft 369 kts 333°
2026-04-15 13:48 53.93276 -2.23238 23872 ft 370 kts 333°
2026-04-15 13:49 53.95664 -2.24872 23864 ft 370 kts 333°
2026-04-15 13:49 53.98047 -2.26512 23860 ft 370 kts 333°
2026-04-15 13:49 54.00436 -2.28156 23861 ft 370 kts 333°
2026-04-15 13:49 54.02822 -2.29802 23855 ft 370 kts 333°
2026-04-15 13:50 54.05209 -2.31448 23853 ft 370 kts 333°
2026-04-15 13:50 54.07595 -2.33096 23856 ft 370 kts 333°
2026-04-15 13:50 54.09981 -2.34745 23859 ft 370 kts 333°
2026-04-15 13:50 54.12364 -2.36395 23854 ft 370 kts 333°
2026-04-15 13:51 54.14745 -2.38047 23852 ft 369 kts 333°
2026-04-15 13:51 54.17129 -2.39703 23851 ft 369 kts 333°
2026-04-15 13:51 54.19508 -2.41357 23850 ft 369 kts 333°
2026-04-15 13:51 54.21890 -2.43011 23848 ft 369 kts 333°
2026-04-15 13:52 54.24273 -2.44670 23848 ft 369 kts 333°
2026-04-15 13:52 54.26652 -2.46331 23850 ft 369 kts 333°
2026-04-15 13:52 54.28996 -2.47968 23844 ft 369 kts 333°
2026-04-15 13:52 54.31375 -2.49631 23847 ft 370 kts 333°
2026-04-15 13:53 54.33764 -2.51303 23843 ft 369 kts 333°
2026-04-15 13:53 54.36147 -2.52976 23835 ft 370 kts 333°
2026-04-15 13:53 54.38525 -2.54646 23843 ft 370 kts 333°
2026-04-15 13:53 54.40906 -2.56316 23842 ft 370 kts 334°
2026-04-15 13:54 54.43294 -2.57996 23838 ft 370 kts 333°
2026-04-15 13:54 54.45675 -2.59677 23836 ft 370 kts 334°
2026-04-15 13:54 54.48057 -2.61357 23837 ft 370 kts 333°
2026-04-15 13:54 54.50405 -2.63016 23833 ft 369 kts 333°
2026-04-15 13:55 54.52779 -2.64695 23834 ft 369 kts 333°
2026-04-15 13:55 54.55158 -2.66381 23830 ft 369 kts 333°
2026-04-15 13:55 54.57538 -2.68072 23831 ft 370 kts 334°
2026-04-15 13:55 54.59913 -2.69754 23829 ft 369 kts 334°
2026-04-15 13:56 54.62289 -2.71445 23829 ft 369 kts 334°
2026-04-15 13:56 54.64666 -2.73141 23828 ft 369 kts 334°
2026-04-15 13:56 54.67049 -2.74836 23826 ft 370 kts 334°
2026-04-15 13:56 54.69425 -2.76532 23822 ft 370 kts 334°
2026-04-15 13:57 54.71805 -2.78234 23818 ft 370 kts 334°
2026-04-15 13:57 54.74184 -2.79936 23818 ft 370 kts 334°
2026-04-15 13:57 54.76559 -2.81638 23817 ft 370 kts 334°
2026-04-15 13:57 54.78937 -2.83346 23812 ft 370 kts 334°
2026-04-15 13:58 54.81318 -2.85051 23814 ft 370 kts 334°
2026-04-15 13:58 54.83666 -2.86741 23812 ft 370 kts 334°
2026-04-15 13:58 54.86044 -2.88453 23809 ft 370 kts 334°
2026-04-15 13:58 54.88424 -2.90167 23803 ft 370 kts 334°
2026-04-15 13:59 54.90801 -2.91884 23808 ft 370 kts 334°
2026-04-15 13:59 54.93182 -2.93607 23805 ft 370 kts 334°
2026-04-15 13:59 54.95564 -2.95328 23812 ft 370 kts 334°
2026-04-15 13:59 54.97927 -2.97037 23539 ft 365 kts 334°
2026-04-15 14:00 55.00259 -2.98731 23018 ft 359 kts 334°
2026-04-15 14:00 55.02547 -3.00394 22509 ft 354 kts 334°
2026-04-15 14:00 55.04812 -3.02042 22012 ft 352 kts 334°
2026-04-15 14:00 55.07074 -3.03689 21517 ft 352 kts 335°
2026-04-15 14:01 55.11556 -3.06961 20535 ft 351 kts 334°
2026-04-15 14:01 55.13807 -3.08604 20041 ft 350 kts 334°
2026-04-15 14:01 55.16069 -3.10259 19793 ft 354 kts 334°
2026-04-15 14:02 55.18352 -3.11937 19795 ft 355 kts 334°
2026-04-15 14:02 55.20632 -3.13610 19793 ft 355 kts 334°
2026-04-15 14:02 55.22918 -3.15285 19794 ft 355 kts 334°
2026-04-15 14:02 55.25200 -3.16966 19795 ft 356 kts 334°
2026-04-15 14:03 55.27491 -3.18648 19791 ft 357 kts 335°
2026-04-15 14:03 55.29859 -3.19805 19772 ft 360 kts 350°
2026-04-15 14:03 55.32357 -3.20043 19774 ft 359 kts
2026-04-15 14:03 55.34838 -3.19646 19771 ft 357 kts
2026-04-15 14:04 55.37318 -3.19255 19772 ft 358 kts
2026-04-15 14:04 55.39798 -3.18889 19770 ft 358 kts
2026-04-15 14:04 55.42277 -3.18502 19774 ft 358 kts
2026-04-15 14:04 55.44762 -3.18104 19764 ft 358 kts
2026-04-15 14:05 55.47240 -3.17714 19768 ft 358 kts
2026-04-15 14:05 55.49681 -3.17337 19313 ft 336 kts
2026-04-15 14:05 55.52003 -3.16973 17639 ft 334 kts
2026-04-15 14:05 55.54335 -3.16601 16384 ft 337 kts
2026-04-15 14:06 55.56688 -3.16230 15611 ft 344 kts
2026-04-15 14:06 55.59096 -3.15850 14864 ft 350 kts
2026-04-15 14:06 55.61532 -3.15464 14126 ft 352 kts
2026-04-15 14:06 55.63958 -3.15085 13386 ft 348 kts
2026-04-15 14:07 55.66320 -3.14712 12590 ft 332 kts
2026-04-15 14:07 55.68552 -3.14358 11806 ft 320 kts
2026-04-15 14:07 55.70748 -3.14007 11046 ft 313 kts
2026-04-15 14:07 55.72904 -3.13614 10298 ft 308 kts
2026-04-15 14:08 55.74972 -3.12842 9562 ft 302 kts 17°
2026-04-15 14:08 55.76966 -3.11681 8757 ft 299 kts 24°
2026-04-15 14:08 55.78842 -3.10175 8122 ft 293 kts 30°
2026-04-15 14:08 55.80671 -3.08568 7614 ft 292 kts 28°
2026-04-15 14:09 55.82498 -3.07005 7107 ft 291 kts 28°
2026-04-15 14:09 55.84316 -3.05442 6615 ft 288 kts 27°
2026-04-15 14:09 55.86218 -3.04412 6111 ft 287 kts
2026-04-15 14:09 55.88161 -3.03840 5604 ft 284 kts
2026-04-15 14:10 55.90101 -3.03202 5091 ft 283 kts
2026-04-15 14:10 55.92031 -3.02559 4648 ft 280 kts
2026-04-15 14:10 55.93951 -3.02105 4442 ft 277 kts 356°
2026-04-15 14:10 55.95871 -3.02193 4226 ft 277 kts 358°
2026-04-15 14:11 55.97798 -3.02046 4018 ft 277 kts
2026-04-15 14:11 55.99722 -3.01875 3816 ft 276 kts
2026-04-15 14:11 56.01618 -3.01698 3627 ft 259 kts
2026-04-15 14:11 56.03287 -3.01528 3412 ft 224 kts
2026-04-15 14:12 56.04774 -3.01359 3179 ft 207 kts
2026-04-15 14:12 56.06123 -3.01769 2973 ft 189 kts 322°
2026-04-15 14:12 56.06910 -3.03371 2963 ft 162 kts 276°
2026-04-15 14:12 56.06850 -3.05192 2974 ft 142 kts 239°
2026-04-15 14:13 56.06482 -3.06791 2985 ft 140 kts 235°
2026-04-15 14:13 56.05994 -3.08260 2986 ft 136 kts 229°
2026-04-15 14:13 56.05482 -3.09693 2984 ft 137 kts 229°
2026-04-15 14:13 56.04973 -3.11130 2985 ft 137 kts 229°
2026-04-15 14:14 56.04369 -3.12394 2984 ft 129 kts 212°
2026-04-15 14:14 56.03663 -3.13205 2982 ft 116 kts 212°
2026-04-15 14:14 56.03028 -3.14143 2942 ft 123 kts 214°
2026-04-15 14:14 56.02467 -3.15414 2780 ft 135 kts 228°
2026-04-15 14:15 56.01932 -3.16825 2598 ft 139 kts 229°
2026-04-15 14:15 56.01416 -3.18290 2409 ft 139 kts 229°
2026-04-15 14:15 56.00908 -3.19755 2225 ft 139 kts 230°
2026-04-15 14:15 56.00412 -3.21246 2034 ft 140 kts 229°
2026-04-15 14:16 55.99907 -3.22737 1845 ft 140 kts 230°
2026-04-15 14:16 55.99408 -3.24212 1659 ft 140 kts 229°
2026-04-15 14:16 55.98905 -3.25702 1465 ft 139 kts 229°
2026-04-15 14:16 55.98433 -3.27112 1287 ft 123 kts 231°
2026-04-15 14:17 55.98047 -3.28263 1128 ft 93 kts 227°
2026-04-15 14:17 55.97736 -3.29153 999 ft 77 kts 226°
2026-04-15 14:17 55.97471 -3.29950 903 ft 74 kts 226°
2026-04-15 14:17 55.97293 -3.30486 834 ft 76 kts 226°
2026-04-15 14:18 55.97011 -3.31279 726 ft 75 kts 227°
2026-04-15 14:18 55.96630 -3.32386 591 ft 84 kts 229°
2026-04-15 14:18 55.96324 -3.33310 475 ft 86 kts 229°
2026-04-15 14:18 55.96027 -3.34209 351 ft 83 kts 227°
2026-04-15 14:19 55.95731 -3.35086 237 ft 82 kts 232°
2026-04-15 14:19 55.95538 -3.35661 162 ft 81 kts 230°
2026-04-15 14:19 55.95267 -3.36477 110 ft 64 kts 231°
2026-04-15 14:19 55.95080 -3.37018 108 ft 44 kts 239°
2026-04-15 14:20 55.94931 -3.37446 106 ft 36 kts 230°
2026-04-15 14:20 55.94812 -3.37782 108 ft 30 kts 240°
2026-04-15 14:20 55.94719 -3.38045 108 ft 16 kts 213°
2026-04-15 14:20 55.94665 -3.38027 109 ft 5 kts 148°
2026-04-15 14:21 55.94640 -3.38000 109 ft 5 kts 150°
2026-04-15 14:21 55.94595 -3.37951 110 ft 10 kts 133°
2026-04-15 14:21 55.94626 -3.37782 110 ft 19 kts 59°
2026-04-15 14:21 55.94706 -3.37544 110 ft 26 kts 58°
2026-04-15 14:22 55.94808 -3.37244 110 ft 30 kts 58°
2026-04-15 14:22 55.94907 -3.36951 110 ft 25 kts 59°
2026-04-15 14:22 55.94989 -3.36709 110 ft 21 kts 58°
2026-04-15 14:22 55.95060 -3.36500 110 ft 19 kts 59°
2026-04-15 14:23 55.95130 -3.36295 110 ft 19 kts 59°
2026-04-15 14:23 55.95194 -3.36104 110 ft 15 kts 58°
2026-04-15 14:23 55.95184 -3.35966 110 ft 12 kts 147°
2026-04-15 14:23 55.95126 -3.35889 110 ft 9 kts 120°
2026-04-15 14:24 55.95088 -3.35785 110 ft 11 kts 134°
2026-04-15 14:24 55.95038 -3.35642 110 ft 16 kts 118°
2026-04-15 14:24 55.94976 -3.35437 110 ft 22 kts 119°
2026-04-15 14:24 55.94896 -3.35179 110 ft 25 kts 118°
2026-04-15 14:25 55.94815 -3.34916 110 ft 21 kts 118°
2026-04-15 14:25 55.94759 -3.34776 110 ft 10 kts 95°
2026-04-15 14:25 55.94772 -3.34722 110 ft 0 kts 62°
2026-04-15 14:26 55.94772 -3.34721 110 ft 2 kts 61°
2026-04-15 14:26 55.94775 -3.34652 110 ft 6 kts 147°
2026-04-15 14:26 55.94753 -3.34628 110 ft 1 kts 148°
2026-04-15 14:27 55.94748 -3.34622 110 ft 2 kts 147°
2026-04-15 14:27 55.94746 -3.34620 110 ft 0 kts 148°
2026-04-15 15:16 55.94745 -3.34620 110 ft 1 kts 182°
2026-04-15 15:17 55.94744 -3.34617 110 ft 2 kts 323°
2026-04-15 15:17 55.94746 -3.34619 110 ft 0 kts 327°
2026-04-15 15:17 55.94752 -3.34626 110 ft 6 kts 328°
2026-04-15 15:17 55.94781 -3.34690 110 ft 7 kts 243°
2026-04-15 15:18 55.94759 -3.34768 110 ft 8 kts 267°
2026-04-15 15:18 55.94793 -3.34844 110 ft 9 kts 304°
2026-04-15 15:18 55.94826 -3.34951 110 ft 11 kts 298°
2026-04-15 15:18 55.94864 -3.35074 110 ft 12 kts 299°
2026-04-15 15:19 55.94908 -3.35217 110 ft 14 kts 298°
2026-04-15 15:19 55.94958 -3.35379 110 ft 16 kts 298°
2026-04-15 15:19 55.95009 -3.35546 110 ft 14 kts 298°
2026-04-15 15:19 55.95047 -3.35670 110 ft 9 kts 298°
2026-04-15 15:20 55.95077 -3.35758 110 ft 9 kts 306°
2026-04-15 15:20 55.95116 -3.35856 110 ft 9 kts 299°
2026-04-15 15:20 55.95157 -3.35935 110 ft 9 kts 326°
2026-04-15 15:20 55.95209 -3.35999 110 ft 10 kts 299°
2026-04-15 15:21 55.95195 -3.36101 110 ft 8 kts 239°
2026-04-15 15:21 55.95165 -3.36189 110 ft 8 kts 240°
2026-04-15 15:21 55.95143 -3.36274 110 ft 6 kts 280°
2026-04-15 15:21 55.95163 -3.36318 110 ft 1 kts 329°
2026-04-15 15:22 55.95164 -3.36318 110 ft 0 kts 329°
2026-04-15 15:22 55.95177 -3.36333 109 ft 5 kts 329°
2026-04-15 15:22 55.95187 -3.36343 109 ft 0 kts 329°